Wind_Speed
8 8 15 27 20 25 24 22 31 24 10 9 21 17 17 15 15 15 11 11 9 12 16 29 31 38 39 40 41 41 40 42 40 36 38 34 36 37 38 41 42 39 38 37
6 17 18 17 16 22 29 26 26 20 15 18 13 18 18 19 13 19 16 12 14 14 10 12 28 33 39 40 43 42 43 43 48 42 39 34 32 32 34 35 40 41 40 39
14 21 15 24 20 18 25 31 30 26 13 18 16 20 12 18 21 14 20 17 17 17 15 14 14 29 41 41 43 45 45 46 48 44 35 30 28 24 30 36 40 45 45 44
14 20 23 23 13 12 13 30 31 26 14 18 18 13 25 18 17 23 20 20 20 13 15 17 16 18 38 45 44 47 48 47 46 43 39 40 39 30 37 33 34 42 44 45
8 10 17 25 30 24 9 17 25 22 20 21 15 13 14 22 20 25 24 25 21 16 18 19 17 21 39 46 44 45 48 46 46 46 46 45 39 40 32 30 31 38 44 45
24 16 8 5 20 24 18 22 19 13 17 21 27 17 15 17 32 28 23 21 17 21 17 18 21 29 31 42 43 44 46 46 46 47 46 46 46 37 33 33 36 38 39 46
10 19 13 13 9 12 19 13 5 10 8 11 23 22 27 25 22 24 23 22 20 17 16 18 17 15 18 35 41 40 42 43 46 47 47 46 46 42 43 39 39 31 33 39
5 8 11 13 11 8 17 20 4 6 9 8 19 21 29 32 8 23 14 10 15 17 19 17 17 15 17 25 37 41 43 44 46 47 48 47 47 42 41 40 38 40 39 40
4 6 4 10 11 9 2 14 14 4 4 5 6 5 34 24 22 25 13 17 14 11 12 16 13 12 17 26 38 44 45 47 47 50 50 47 45 41 40 41 42 42 41 40
4 9 4 13 14 13 3 7 6 9 6 5 4 18 20 20 29 16 8 8 7 7 8 9 8 11 20 31 41 46 50 51 51 51 50 49 48 46 43 39 41 42 44 43
4 4 9 6 7 7 5 5 5 1 5 5 2 7 23 9 6 14 18 15 12 13 12 9 9 9 19 23 30 38 44 47 47 49 48 43 41 41 40 41 45 44 41 43
5 4 5 7 2 14 4 3 9 3 6 4 6 7 6 2 2 5 5 12 17 20 22 18 10 10 9 18 26 33 37 41 45 47 46 44 42 39 41 42 44 44 46 46
2 4 4 4 3 7 4 5 6 3 2 4 8 6 4 10 12 9 8 11 11 13 16 20 13 13 12 13 22 31 36 38 39 40 43 40 36 38 42 43 45 48 44 42
6 3 5 3 4 4 8 11 9 4 3 5 6 12 3 11 11 11 11 11 15 17 16 7 5 4 6 8 15 22 26 34 35 39 42 40 37 41 43 46 44 46 45 41
2 4 2 5 9 11 15 14 11 9 5 4 4 6 9 13 5 5 11 13 17 19 21 19 7 5 3 5 9 16 17 22 32 33 36 40 40 40 37 35 38 40 40 39
4 3 3 4 6 9 15 19 14 13 14 13 12 9 6 9 8 10 12 13 13 15 17 16 18 8 4 6 7 13 17 17 22 25 25 30 32 34 34 36 36 38 37 35
5 2 4 4 4 8 7 13 16 12 14 11 7 5 10 13 12 11 8 10 13 13 15 18 15 11 9 3 13 12 18 19 19 19 18 22 26 28 30 32 34 36 35 37
9 3 2 6 6 3 5 10 11 10 14 9 8 4 9 11 7 6 4 2 11 13 15 17 17 13 14 5 8 13 13 14 16 16 18 20 23 24 25 29 30 30 35 39
14 5 2 2 3 10 12 9 5 3 6 9 14 11 10 9 4 4 7 6 2 8 12 13 20 24 24 7 7 13 11 12 13 14 17 20 26 28 29 27 29 32 31 27
7 9 5 1 2 5 5 7 11 5 3 13 3 5 8 12 5 4 8 11 10 6 1 12 24 31 25 23 7 8 14 14 14 15 17 19 23 26 24 26 28 27 27 30
1 3 9 8 7 7 9 13 4 3 4 3 6 5 0 3 6 7 7 7 12 12 9 3 15 19 25 26 10 11 10 13 13 14 16 17 20 23 27 27 28 27 28 28
3 1 3 3 6 7 4 13 6 5 6 3 2 4 5 6 5 5 5 4 2 1 5 16 7 11 15 21 20 7 10 13 15 17 20 21 21 22 25 29 27 29 30 33
2 1 4 5 4 11 13 14 17 9 8 5 4 4 4 6 5 6 5 5 1 2 3 2 10 12 6 5 12 14 19 15 16 19 20 21 23 24 26 26 25 24 28 25
4 5 3 5 4 3 10 18 12 12 7 6 5 4 3 3 6 7 7 6 6 3 5 5 5 3 6 15 10 12 18 15 15 18 21 24 24 24 26 26 28 27 25 23
4 6 7 6 9 11 12 11 15 13 8 6 6 3 6 4 5 5 4 5 5 6 10 11 7 8 10 9 12 12 10 7 11 15 17 20 21 25 24 25 29 28 30 38
4 6 4 5 7 4 12 11 9 6 4 7 7 8 8 6 6 5 6 5 5 6 10 10 12 8 13 13 8 9 10 1 10 13 17 21 20 21 22 23 21 22 28 33
Wind_Direction
326 257 220 216 211 241 232 230 228 242 204 211 236 238 236 254 232 233 221 224 229 191 210 209 200 190 194 191 188 188 187 186 183 186 188 193 199 204 207 212 214 213 210 210
306 254 244 271 223 242 237 235 237 251 226 212 223 228 224 239 238 228 218 222 221 225 215 193 208 189 191 191 191 190 189 184 189 191 193 195 199 203 208 210 214 214 213 212
247 254 256 240 267 245 245 228 233 228 211 230 226 248 238 233 236 242 233 222 221 214 217 223 191 192 190 192 191 191 189 189 191 194 188 191 192 203 201 207 213 213 214 213
252 268 240 235 234 221 276 227 239 240 228 229 199 237 227 229 230 227 235 228 228 218 223 222 208 188 190 195 194 190 190 191 192 189 187 186 189 194 205 202 204 205 208 209
230 281 250 219 226 237 249 281 233 240 223 244 228 230 226 215 225 226 224 233 229 220 219 224 217 192 193 196 193 192 191 191 190 187 190 190 195 204 199 204 205 211 212 215
257 266 263 315 244 227 232 265 281 270 229 224 222 228 230 208 217 224 225 224 224 225 216 214 214 211 192 198 196 192 191 194 191 190 192 194 199 198 195 195 203 207 211 217
273 244 228 219 264 203 213 208 213 209 206 221 215 215 238 211 223 217 216 224 224 209 211 215 214 214 192 195 198 193 191 194 194 193 193 196 200 197 197 196 196 194 203 210
335 319 174 195 227 207 217 209 204 212 195 192 218 210 240 227 206 228 227 212 210 203 210 203 207 203 205 192 195 189 192 195 194 194 196 198 201 198 200 199 198 199 203 210
320 273 327 255 194 198 214 219 200 337 332 257 184 222 249 241 234 240 230 224 220 215 217 225 215 206 202 189 192 192 192 196 193 195 197 199 201 199 199 200 200 202 204 208
287 291 30 316 185 210 200 144 177 211 203 228 253 205 232 194 223 226 234 249 265 272 231 239 232 213 208 199 196 197 193 193 196 198 197 199 199 199 199 197 199 202 204 205
269 251 289 354 204 232 199 221 190 221 211 225 210 240 236 231 193 224 247 249 252 258 250 235 233 218 215 204 197 201 196 196 199 197 198 199 200 200 197 198 202 204 201 202
221 215 277 278 216 340 192 229 205 165 187 221 229 266 306 157 225 208 244 257 245 241 251 246 232 230 214 216 198 195 198 202 201 198 196 195 197 194 193 197 199 202 204 203
310 284 324 343 13 33 1 350 314 290 309 187 193 249 143 52 45 26 47 16 2 354 286 262 244 227 224 220 196 199 198 199 198 194 193 194 190 190 192 195 198 202 199 198
276 267 176 242 234 289 308 317 313 304 237 212 218 268 24 32 15 3 4 19 22 4 353 248 135 181 214 182 189 190 192 192 186 185 189 190 187 190 193 195 194 198 196 189
272 265 275 255 255 258 264 272 286 297 288 259 45 286 300 340 325 343 16 7 29 8 357 1 360 10 38 79 117 135 157 180 185 175 179 188 194 193 192 188 190 192 190 190
303 310 295 276 267 272 265 265 262 262 272 265 270 282 292 352 359 0 21 348 19 5 346 350 4 350 39 75 71 91 110 127 160 162 171 183 186 184 184 187 186 187 187 185
259 262 342 266 293 310 263 248 235 246 238 217 233 271 23 325 323 331 358 357 352 339 336 343 347 344 327 118 128 113 114 117 124 130 147 160 169 174 178 180 180 178 178 175
238 207 231 289 332 327 245 316 283 247 254 250 268 252 285 261 265 309 156 86 319 335 341 337 341 343 352 286 125 129 131 125 127 135 150 162 170 168 168 173 177 175 176 177
214 196 243 234 236 284 300 298 11 213 292 254 235 217 210 264 199 294 149 182 129 359 345 326 332 324 339 355 175 147 145 143 144 160 168 173 172 172 175 173 176 174 172 173
172 198 191 120 211 253 245 328 323 306 338 342 212 195 227 184 224 232 200 179 153 133 106 329 331 326 342 335 210 202 173 174 177 183 183 190 184 173 168 171 169 169 169 166
202 169 201 216 245 278 282 289 326 125 213 302 351 346 175 181 221 175 218 183 172 168 168 190 304 312 330 335 254 202 191 214 206 193 189 193 195 182 176 168 162 156 155 158
220 254 197 174 217 256 310 318 15 325 307 273 50 10 357 336 283 276 256 215 104 297 201 156 229 260 302 335 358 311 245 229 210 197 189 189 194 184 179 170 161 159 159 154
302 135 302 196 220 327 313 319 307 304 286 307 324 326 306 312 322 315 290 292 220 235 261 146 184 228 291 48 10 349 343 298 217 197 192 183 186 184 178 167 161 157 162 159
256 160 218 311 231 269 275 297 289 289 268 305 310 308 36 5 338 330 314 306 289 256 257 219 157 49 326 331 349 344 339 343 217 195 188 181 178 175 176 175 172 167 169 165
233 305 251 261 269 253 257 240 264 286 308 317 331 313 309 297 310 289 299 315 315 318 313 294 202 199 205 263 304 324 331 333 218 203 180 174 176 175 175 179 181 184 188 186
215 223 197 221 243 228 273 273 283 308 354 353 351 346 345 355 329 312 307 295 296 306 307 315 317 261 223 201 224 277 302 260 212 182 177 180 181 179 179 178 182 196 200 197
Height
750 741 730 726 732 732 724 716 711 690 700 708 702 708 700 692 689 687 689 688 691 697 693 696 699 704 709 714 720 726 733 738 748 754 759 766 767 773 777 780 784 789 793 797
755 746 738 731 727 729 724 719 708 694 696 698 698 698 692 688 683 677 679 685 683 683 686 690 692 697 702 705 711 719 724 731 737 743 749 758 764 768 773 777 780 785 788 792
756 728 732 742 733 729 717 711 700 696 693 686 697 702 697 679 675 674 668 666 671 674 678 679 685 689 691 698 701 709 715 721 727 734 746 754 762 766 769 769 774 776 781 785
740 726 724 726 730 729 727 696 691 698 704 705 682 705 685 682 678 672 665 662 663 669 668 668 672 679 682 685 690 697 705 711 719 729 737 741 743 750 753 760 767 771 775 779
725 720 715 710 710 716 719 701 689 691 696 695 686 694 675 668 676 662 655 653 654 659 660 661 663 667 671 675 681 688 695 703 710 716 723 729 735 738 749 757 762 766 770 774
726 718 727 710 693 697 713 711 701 692 684 690 676 684 670 662 649 648 646 645 647 647 652 652 652 655 663 668 672 679 686 694 702 707 714 720 724 732 741 747 752 757 763 768
714 706 706 706 693 685 696 703 693 692 690 682 659 673 640 635 629 632 637 637 636 640 645 646 647 648 653 659 664 672 679 686 693 698 704 710 715 723 727 732 739 748 754 759
729 712 701 696 700 674 680 682 678 671 671 673 648 665 626 620 624 623 626 630 631 634 632 638 638 639 642 650 656 661 669 675 682 687 693 700 706 714 719 725 730 735 741 746
740 723 683 682 679 681 679 669 674 684 683 669 653 651 613 627 624 622 627 625 628 629 628 625 629 631 633 639 645 650 656 662 670 675 683 691 699 707 712 716 722 725 730 737
738 722 699 688 676 674 673 677 677 675 672 669 658 644 630 622 616 620 630 630 628 624 626 623 623 623 625 626 630 638 642 648 656 664 671 678 685 694 702 709 714 717 721 727
736 731 696 697 678 671 681 673 675 674 672 665 660 648 600 620 621 623 620 620 622 621 620 620 618 619 618 621 625 631 634 639 646 653 660 671 680 688 696 700 704 710 716 721
734 754 719 686 693 695 664 667 665 663 667 660 651 650 608 609 614 613 617 612 607 607 606 607 611 611 613 615 617 621 627 633 636 642 651 660 668 678 686 691 695 703 707 712
724 741 753 689 697 701 700 701 696 686 676 651 657 650 616 623 625 629 628 627 621 616 605 595 599 603 605 604 607 610 616 620 627 636 645 653 662 669 675 682 688 693 700 707
722 731 745 736 720 717 704 701 696 690 669 657 652 641 633 635 636 638 632 628 622 620 615 604 602 600 598 597 600 601 607 613 619 628 636 645 653 659 666 672 679 686 692 698
726 730 734 722 712 710 704 699 695 693 686 678 652 656 641 644 643 645 637 632 626 634 626 619 611 604 599 599 602 600 604 609 615 622 630 637 644 653 661 668 674 681 687 694
734 721 718 710 696 690 698 688 685 683 683 680 673 661 648 643 642 639 639 643 637 640 639 628 619 615 610 606 606 605 605 608 614 622 629 635 642 649 656 662 669 676 683 691
735 735 730 725 702 703 710 681 675 673 672 665 665 656 660 653 650 647 643 640 640 646 640 634 629 627 621 611 610 611 611 613 617 624 631 635 640 646 654 660 667 672 679 685
727 735 728 724 712 736 669 657 657 663 659 654 652 661 662 655 649 645 645 646 645 645 639 639 634 629 625 622 615 616 617 617 619 624 632 637 641 647 652 659 664 669 674 678
711 725 740 741 729 692 667 651 646 651 651 645 645 648 651 649 649 644 645 651 650 646 642 645 637 635 626 624 621 617 620 622 624 628 632 636 640 644 649 656 662 667 674 680
701 711 720 739 738 743 672 657 652 654 665 646 639 642 639 642 654 654 643 645 647 653 650 641 634 640 626 626 623 626 621 622 625 629 632 636 641 643 647 653 658 666 672 677
710 714 718 717 711 696 668 652 651 666 671 650 644 641 639 643 642 637 634 636 639 642 645 645 644 639 636 634 625 624 623 624 627 630 633 638 643 646 649 654 657 664 670 677
708 717 730 721 714 701 662 657 665 664 655 647 643 641 641 640 635 632 632 631 631 632 631 638 647 643 640 640 631 630 627 622 625 630 632 638 644 649 651 654 660 665 670 674
706 708 708 701 699 681 676 674 664 662 656 646 642 641 641 641 637 636 633 630 629 629 630 632 634 638 639 636 638 634 629 625 627 629 632 637 643 646 650 656 661 664 669 675
690 695 702 698 681 681 680 668 659 654 652 645 643 641 641 641 640 638 637 633 631 627 628 632 634 634 639 633 637 637 632 626 627 629 630 634 640 644 649 655 659 663 668 672
697 694 687 687 677 669 664 662 656 652 649 646 644 642 643 640 639 639 638 636 633 630 629 629 629 631 635 639 639 637 632 627 626 631 632 635 639 643 648 651 654 659 662 663
687 683 690 686 671 671 666 658 656 654 652 650 648 645 644 642 641 640 638 635 632 629 628 627 627 630 630 630 631 632 632 625 627 630 632 634 639 641 646 650 655 658 661 663